Weather in Valle Gran Rey

Spain     28°05′13″N   17°20′06″W
temp.,
°C
wind,
m/s
gust,
m/s
humid.,
%
clouds,
%
prec.,
mm/h
press.,
hPa
HPBL,
m
8 march, mon
mon800:00+16nne34730 0.0 1023426
03:00+17n467315 0.0 1022741
06:00+16n348013 0.0 1020350
09:00+18n567960 0.4 1021598
12:00+20n457134 0.4 1021658
15:00+20nne34660 0.0 1019793
18:00+19nne33690 0.0 1019480
21:00+18nne46750 0.0 1021424
9 march, tue
tue900:00+17nne34760 0.0 1021211
03:00+17ene24790 0.0 1020354
06:00+16nne67790 0.0 1020423
09:00+16nne56690 0.0 1021520
12:00+19nne46560 0.0 1022782
15:00+19nne56530 0.0 1021669
18:00+17ese26620 0.0 1020614
21:00+15nne56700 0.0 1022355
10 march, wed
wed1000:00+15nne66720 0.0 1023237
03:00+14nne56750 0.0 1022244
06:00+14nne44760 0.0 1021230
09:00+15nne55700 0.0 1023251
12:00+18nne32550 0.0 1023743
15:00+18n44600 0.0 1022785
18:00+17nne24640 0.0 1021594
21:00+15nne55730 0.0 1023326
11 march, thu
thu1100:00+16nne55730 0.0 1023298
03:00+15ne23740 0.0 1023324
06:00+15nne23760 0.0 1022362
09:00+16nnw02700 0.0 1023510
12:00+18s11640 0.0 1024476
15:00+18wsw44682 0.0 1022674
18:00+19e23696 0.0 1022517
21:00+18nne34760 0.0 1023324
12 march, fri
fri1200:00+18nne55770 0.0 1023160
03:00+18nne44750 0.0 102275
06:00+18sw127212 0.0 102262
09:00+19ese236684 0.0 1023109
12:00+20ese235880 0.0 1024464
15:00+20se13589 0.0 1022488
18:00+20se12594 0.0 1021414
21:00+18nnw23747 0.0 1022163